Flag for Hungary Weather past 2 weeks in Budapest, Hungary

Now
46 °F

Clear.


Feels Like: 46 °F
Forecast: 46 / 75 °F
Wind: 2 mph from North

Location: Ferenc Liszt International Airport

Current Time: Aug 28, 2014 at 2:07:35 AM

Latest Report: Aug 28, 2014 at 1:30 AM


Visibility: 10 mi

Pressure: 30.04 "Hg

Humidity: 87%

Dew point: 43 °F

Location of BudapestLocation

Historic Weather in Budapest — Graph

°F

Budapest temperature yesterday

Maximum temperature yesterday: 73 °F (at 12:30 PM)
Minimum temperature yesterday: 55 °F (at 11:00 PM)
Average temperature yesterday: 64 °F

Past Weeks' High & Low Weather Summary

 TemperatureHumidityPressure
High86 °F (Aug 13, 4:00 PM)100% (Aug 14, 10:30 PM)30.15 "Hg (Aug 14, 10:30 PM)
Low46 °F (Aug 25, 6:00 AM)35% (Aug 25, 1:00 PM)29.68 "Hg (Aug 13, 10:00 PM)
Average64 °F74%29.94 "Hg
* Reported Aug 13 1:00 AM — Aug 28 1:00 AM, Budapest, Weather by CustomWeather, © 2014

Note: Actual official high and low records may vary slightly from our data, if they occured in-between our weather recording intervals... More about our weather records

Advertising

Budapest weather history for previous 24 hours

 ConditionsComfort  
Time TempWeatherWind HumidityBarometerVisibility
1:00 AM
Aug 28
48 °FClear.1 mph82%30.04 "Hg10 mi
12:30 AM50 °FClear.No wind76%30.04 "Hg10 mi
12:00 AM54 °FClear.5 mph67%30.04 "Hg10 mi
11:30 PM
Aug 27
55 °FPassing clouds.7 mph67%30.01 "HgN/A
11:00 PM55 °FClear.9 mph67%30.01 "Hg10 mi
10:30 PM57 °FClear.13 mph63%29.98 "Hg10 mi
10:00 PM57 °FClear.8 mph67%29.98 "Hg10 mi
9:30 PM59 °FClear.17 mph63%29.95 "Hg10 mi
9:00 PM59 °FClear.17 mph68%29.95 "Hg10 mi
8:00 PM63 °FSunny.20 mph64%29.92 "Hg10 mi
7:30 PM63 °FSunny.21 mph64%29.89 "Hg10 mi
7:00 PM64 °FPassing clouds.25 mph60%29.86 "HgN/A
6:30 PM66 °FPassing clouds.23 mph60%29.86 "HgN/A
6:00 PM68 °FPassing clouds.25 mph60%29.86 "HgN/A
5:00 PM70 °FScattered clouds.15 mph64%29.83 "HgN/A
4:30 PM68 °FSprinkles. Broken clouds.18 mph64%29.83 "HgN/A
4:00 PM72 °FThundershowers. Partly sunny.22 mph50%29.83 "HgN/A
3:30 PM73 °FThundershowers. Scattered clouds.21 mph50%29.80 "HgN/A
3:00 PM73 °FPassing clouds.17 mph53%29.80 "HgN/A
2:30 PM73 °FPassing clouds.16 mph53%29.80 "HgN/A
2:00 PM72 °FSunny.16 mph53%29.80 "Hg10 mi
1:30 PM72 °FBroken clouds.21 mph53%29.80 "HgN/A
1:00 PM72 °FBroken clouds.17 mph57%29.80 "HgN/A
12:30 PM73 °FBroken clouds.20 mph53%29.80 "HgN/A
12:00 PM72 °FBroken clouds.22 mph57%29.80 "HgN/A
11:30 AM70 °FBroken clouds.21 mph60%29.80 "HgN/A
11:00 AM72 °FBroken clouds.21 mph57%29.80 "HgN/A
10:30 AM72 °FScattered clouds.14 mph73%29.77 "HgN/A
10:00 AM66 °FPassing clouds.8 mph88%29.77 "HgN/A
9:30 AM66 °FClear.12 mph88%29.80 "Hg5 mi
9:00 AM66 °FClear.10 mph88%29.77 "Hg4 mi
8:30 AM63 °FPartly sunny.7 mph100%29.77 "Hg4 mi
8:00 AM63 °FBroken clouds.6 mph94%29.77 "Hg4 mi
7:30 AM61 °FClear.3 mph100%29.77 "Hg4 mi
7:00 AM61 °FFog.2 mph100%29.74 "HgN/A
6:30 AM59 °FClear.5 mph100%29.74 "Hg10 mi
6:00 AM59 °FClear.1 mph100%29.74 "Hg10 mi
5:30 AM59 °FClear.1 mph100%29.74 "Hg10 mi
5:00 AM59 °FClear.5 mph100%29.74 "Hg10 mi
4:30 AM61 °FClear.5 mph94%29.74 "Hg10 mi
4:00 AM61 °FClear.5 mph94%29.74 "Hg10 mi
3:30 AM61 °FClear.1 mph100%29.77 "Hg10 mi
3:00 AM61 °FClear.3 mph100%29.77 "Hg10 mi
2:00 AM61 °FClear.2 mph94%29.77 "Hg10 mi
Weather by CustomWeather, © 2014

See weather overviewHow to use our weather pages